Powrót do katalogu

CZ-4B DEB

AktywnyPO
NORAD 39052·DEBRIS·🇨🇳 China

Wystrzelony Oct 14, 1999 z Taiyuan Satellite Launch Center

Loading…

Następne Przeloty (najbliższe 24 godziny)

TLE

ŚwieżeSource: Space-Track

Epoka: Sep 14, 2026, 08:40 UTC

1 39052U 99057SZ  26257.36171028  .00000915  00000-0  85470-4 0  9992
2 39052  98.7320 303.7587 0057968 102.9840 257.7859 14.95956027752131

Śledź CZ-4B DEB w czasie rzeczywistym z AllMySat

Download on the App Store